NOZ37N LEPA-ENGM

Flight info

Callsign NOZ37N
Flight time N/A
Altitude 36000
Route GALAT DCT RODRA DCT VNV DCT ANTON DCT BISES DCT SADUR DCT CAVES DCT LATRO DCT OLOXO DCT OKABI DCT TOU DCT ADABI DCT BOKNO DCT DEVRO DCT VANAD DCT PIWIZ DCT VADOM DCT BAMES DCT PODEM DCT BAZOS DCT BELDI/N0453F350 DCT VICOT/N0454F360 DCT LONAM/N0454F370 DCT LARGA DCT TINAC DCT KARLI DCT RIVEX DCT OSKOM DCT RIPAM
Aircraft B738/M-SDE2E3FGHIRWXY/LB1

Departure

Time 2026-05-05 15:29
Airport Palma de Mallorca Airport (LEPA)

Arrival

Time N/A
Airport Oslo-Gardermoen International Airport (ENGM)
Time Latitude Longitude Altitude Speed Heading
2026-05-05 15:05 39.55253 2.73223 37 ft 0 kts 196°
2026-05-05 15:21 39.55275 2.73230 36 ft 4 kts 182°
2026-05-05 15:21 39.55301 2.73226 35 ft 4 kts 156°
2026-05-05 15:21 39.55321 2.73207 33 ft 4 kts 110°
2026-05-05 15:21 39.55322 2.73189 36 ft 0 kts 58°
2026-05-05 15:24 39.55323 2.73190 35 ft 1 kts 58°
2026-05-05 15:24 39.55333 2.73212 35 ft 5 kts 59°
2026-05-05 15:25 39.55359 2.73268 37 ft 10 kts 58°
2026-05-05 15:25 39.55401 2.73356 37 ft 13 kts 58°
2026-05-05 15:25 39.55452 2.73464 37 ft 15 kts 58°
2026-05-05 15:25 39.55510 2.73571 37 ft 13 kts 25°
2026-05-05 15:26 39.55586 2.73527 37 ft 13 kts 327°
2026-05-05 15:26 39.55666 2.73527 37 ft 13 kts 46°
2026-05-05 15:26 39.55717 2.73632 37 ft 15 kts 58°
2026-05-05 15:26 39.55775 2.73755 37 ft 17 kts 58°
2026-05-05 15:27 39.55838 2.73888 37 ft 16 kts 58°
2026-05-05 15:27 39.55901 2.74020 37 ft 19 kts 58°
2026-05-05 15:27 39.55972 2.74172 37 ft 21 kts 59°
2026-05-05 15:27 39.56066 2.74286 37 ft 18 kts 27°
2026-05-05 15:28 39.56180 2.74350 35 ft 18 kts 358°
2026-05-05 15:28 39.56212 2.74233 36 ft 17 kts 239°
2026-05-05 15:28 39.56142 2.74084 37 ft 35 kts 238°
2026-05-05 15:28 39.55891 2.73554 37 ft 102 kts 239°
2026-05-05 15:29 39.55429 2.72550 84 ft 151 kts 239°
2026-05-05 15:29 39.54908 2.71363 728 ft 155 kts 238°
2026-05-05 15:29 39.54328 2.70129 1380 ft 159 kts 237°
2026-05-05 15:29 39.53709 2.68911 2049 ft 168 kts 237°
2026-05-05 15:30 39.53004 2.67554 2369 ft 192 kts 237°
2026-05-05 15:30 39.52241 2.66081 2746 ft 205 kts 237°
2026-05-05 15:30 39.51425 2.64499 3156 ft 216 kts 238°
2026-05-05 15:30 39.50583 2.62862 3756 ft 220 kts 238°
2026-05-05 15:31 39.49746 2.61230 4591 ft 215 kts 238°
2026-05-05 15:31 39.48921 2.59617 5319 ft 215 kts 238°
2026-05-05 15:31 39.48088 2.57988 5860 ft 218 kts 238°
2026-05-05 15:31 39.47250 2.56348 5979 ft 219 kts 238°
2026-05-05 15:32 39.46744 2.54461 6087 ft 235 kts 272°
2026-05-05 15:32 39.47303 2.52383 6382 ft 259 kts 303°
2026-05-05 15:32 39.48568 2.50697 6935 ft 271 kts 318°
2026-05-05 15:32 39.50135 2.49286 7600 ft 277 kts 323°
2026-05-05 15:33 39.51777 2.47957 8305 ft 280 kts 324°
2026-05-05 15:33 39.53454 2.46617 8979 ft 286 kts 324°
2026-05-05 15:33 39.55155 2.45247 9670 ft 290 kts 323°
2026-05-05 15:33 39.56880 2.43840 10214 ft 298 kts 323°
2026-05-05 15:34 39.58696 2.42336 10388 ft 320 kts 323°
2026-05-05 15:34 39.60625 2.40720 10541 ft 340 kts 323°
2026-05-05 15:34 39.62671 2.39002 10728 ft 358 kts 323°
2026-05-05 15:34 39.64783 2.37231 11215 ft 364 kts 323°
2026-05-05 15:35 39.66923 2.35436 11886 ft 366 kts 322°
2026-05-05 15:35 39.69066 2.33633 12556 ft 368 kts 322°
2026-05-05 15:35 39.71225 2.31811 13230 ft 372 kts 322°
2026-05-05 15:35 39.73377 2.29989 13842 ft 375 kts 321°
2026-05-05 15:36 39.75570 2.28130 14472 ft 378 kts 321°
2026-05-05 15:36 39.77783 2.26252 15140 ft 380 kts 321°
2026-05-05 15:36 39.80003 2.24367 15775 ft 384 kts 320°
2026-05-05 15:36 39.82250 2.22455 16370 ft 388 kts 320°
2026-05-05 15:37 39.84515 2.20529 17012 ft 390 kts 320°
2026-05-05 15:37 39.86023 2.19245 17455 ft 391 kts 320°
2026-05-05 15:37 39.89084 2.16637 18256 ft 395 kts 320°
2026-05-05 15:37 39.91394 2.14667 18770 ft 398 kts 319°
2026-05-05 15:38 39.93717 2.12684 19291 ft 400 kts 319°
2026-05-05 15:38 39.96055 2.10687 19825 ft 403 kts 319°
2026-05-05 15:38 39.97615 2.09354 20175 ft 404 kts 319°
2026-05-05 15:38 40.00744 2.06677 20843 ft 408 kts 319°
2026-05-05 15:39 40.03125 2.04638 21340 ft 411 kts 318°
2026-05-05 15:39 40.05528 2.02578 21820 ft 413 kts 318°
2026-05-05 15:39 40.07120 2.01213 22145 ft 415 kts 318°
2026-05-05 15:39 40.09538 1.99139 22633 ft 417 kts 318°
2026-05-05 15:40 40.11970 1.97049 23108 ft 419 kts 317°
2026-05-05 15:40 40.14509 1.95094 23547 ft 430 kts 325°
2026-05-05 15:40 40.17334 1.93638 23906 ft 444 kts 334°
2026-05-05 15:40 40.20390 1.92741 24264 ft 454 kts 341°
2026-05-05 15:41 40.23521 1.92026 24603 ft 458 kts 341°
2026-05-05 15:41 40.26692 1.91339 24856 ft 465 kts 342°
2026-05-05 15:41 40.29906 1.90643 25145 ft 469 kts 341°
2026-05-05 15:41 40.33142 1.89929 25477 ft 471 kts 341°
2026-05-05 15:42 40.36336 1.89209 25842 ft 472 kts 341°
2026-05-05 15:42 40.39623 1.88455 26188 ft 474 kts 340°
2026-05-05 15:42 40.42843 1.87706 26496 ft 477 kts 340°
2026-05-05 15:42 40.46114 1.86939 26825 ft 479 kts 340°
2026-05-05 15:43 40.49409 1.86164 27087 ft 482 kts 340°
2026-05-05 15:43 40.52721 1.85384 27360 ft 485 kts 340°
2026-05-05 15:43 40.56050 1.84601 27660 ft 487 kts 340°
2026-05-05 15:43 40.59405 1.83813 27965 ft 489 kts 340°
2026-05-05 15:44 40.62762 1.83024 28249 ft 491 kts 340°
2026-05-05 15:44 40.66136 1.82230 28514 ft 493 kts 340°
2026-05-05 15:44 40.69531 1.81429 28776 ft 496 kts 340°
2026-05-05 15:44 40.72930 1.80628 29053 ft 497 kts 340°
2026-05-05 15:45 40.76338 1.79825 29445 ft 496 kts 339°